Terug naar catalogus

THORAD AGENA D DEB

ActiefLEO
NORAD 5151·DEBRIS·🇺🇸 United States

Gelanceerd Apr 8, 1970 vanaf Vandenberg Space Force Base

Loading…

Volgende Passages (komende 24 uur)

TLE

VersSource: Space-Track

Epoch: Sep 13, 2026, 21:59 UTC

1  5151U 70025JU  26256.91641470  .00000349  00000-0  48715-3 0  9993
2  5151 100.0612 130.9510 0002854 349.2800  24.3151 13.65462150295890

Volg THORAD AGENA D DEB in realtime met AllMySat

Download on the App Store